Weather History for KHSB - September, 2013

Change the Weather History Date:

Tuesday, September 17, 2013

  Actual Average (KMWA) Record (KMWA)
Temperature  
Mean Temperature 68 °F -  
Max Temperature 80 °F 78 °F 90 °F (1970)
Min Temperature 55 °F 56 °F 33 °F (1997)
Cooling Degree Days 2    
Growing Degree Days 18 (Base 50)    
Moisture  
Dew Point 59 °F    
Average Humidity 76    
Maximum Humidity 100    
Minimum Humidity 43    
Precipitation  
Precipitation 0.00 in - - ()
Sea Level Pressure  
Sea Level Pressure 30.19 in    
Wind  
Wind Speed 4 mph (East)    
Max Wind Speed 9 mph    
Max Gust Speed -    
Visibility 9 miles    
Events      
Averages and records for this station are not official NWS values.
T = Trace of Precipitation, MM = Missing Value Source: NWS Daily Summary

Daily Weather History Graph

Daily Weather History Graph

Search for Another Location

Airport or City:

Trip Planner

Search our weather history database for the weather conditions in past years. The results will help you decide how hot, cold, wet, or windy it might be!

Date:

Astronomy

Sep. 17, 2013 Rise Set
Actual Time 6:37 AM CDT 6:58 PM CDT
Civil Twilight 6:11 AM CDT 7:24 PM CDT
Nautical Twilight 5:40 AM CDT 7:55 PM CDT
Astronomical Twilight 5:09 AM CDT 8:26 PM CDT
Moon 5:44 PM CDT (9/17) 4:33 AM CDT (9/17)
Length of Visible Light 13h 13m
Length of Day
12h 20m
Waxing Gibbous, 96% of the Moon is Illuminated
Sep 17
Waxing Gibbous
Sep 19
Full
Sep 26
Last Quarter
Oct 4
New
Oct 11
First Quarter

Hourly Weather History & Observations

Time (CDT) Temp. Heat Index Dew Point Humidity Pressure Visibility Wind Dir Wind Speed Gust Speed Precip Events Conditions
12:15 AM 61.9 °F - 59.4 °F 91% 30.24 in 10.0 mi NE 4.6 mph - N/A   Scattered Clouds
12:35 AM 61.2 °F - 59.0 °F 93% 30.24 in 10.0 mi NNE 3.5 mph - N/A   Scattered Clouds
12:55 AM 59.9 °F - 58.5 °F 95% 30.24 in 10.0 mi Calm Calm - N/A   Clear
1:15 AM 59.0 °F - 57.9 °F 96% 30.24 in 10.0 mi North 3.5 mph - N/A   Clear
1:35 AM 59.2 °F - 58.1 °F 96% 30.24 in 10.0 mi NNE 4.6 mph - N/A   Clear
1:55 AM 59.5 °F - 58.6 °F 97% 30.24 in 10.0 mi NNE 6.9 mph - N/A   Clear
2:15 AM 59.7 °F - 58.8 °F 97% 30.24 in 10.0 mi NNE 5.8 mph - N/A   Clear
2:35 AM 59.4 °F - 58.3 °F 96% 30.23 in 10.0 mi NNE 4.6 mph - N/A   Clear
2:55 AM 59.0 °F - 58.1 °F 97% 30.23 in 10.0 mi NNE 3.5 mph - N/A   Clear
3:15 AM 58.5 °F - 58.1 °F 99% 30.23 in 7.0 mi NNE 3.5 mph - N/A   Scattered Clouds
3:35 AM 58.3 °F - 57.9 °F 99% 30.23 in 7.0 mi NNE 3.5 mph - N/A   Clear
3:55 AM 57.7 °F - 57.6 °F 99% 30.23 in 7.0 mi NNE 3.5 mph - N/A   Clear
4:15 AM 57.7 °F - 57.7 °F 100% 30.23 in 7.0 mi NNE 3.5 mph - N/A   Clear
4:35 AM 57.6 °F - 57.6 °F 100% 30.23 in 7.0 mi NNE 4.6 mph - N/A   Clear
4:55 AM 57.7 °F - 57.6 °F 99% 30.23 in 7.0 mi Calm Calm - N/A   Clear
5:15 AM 57.6 °F - 57.4 °F 99% 30.23 in 7.0 mi Calm Calm - N/A   Clear
5:35 AM 56.8 °F - 56.7 °F 99% 30.23 in 7.0 mi NE 3.5 mph - N/A   Clear
5:55 AM 55.6 °F - 55.6 °F 100% 30.23 in 5.0 mi NNE 3.5 mph - N/A   Clear
6:15 AM 56.7 °F - 56.7 °F 100% 30.24 in 7.0 mi Calm Calm - N/A   Clear
6:35 AM 56.7 °F - 56.7 °F 100% 30.24 in 5.0 mi NNE 3.5 mph - N/A   Clear
6:55 AM 56.7 °F - 56.7 °F 100% 30.24 in 5.0 mi NNE 3.5 mph - N/A   Clear
7:15 AM 56.7 °F - 56.7 °F 100% 30.25 in 5.0 mi NNE 4.6 mph - N/A   Clear
7:35 AM 57.4 °F - 57.4 °F 100% 30.25 in 5.0 mi NE 3.5 mph - N/A   Clear
7:55 AM 58.1 °F - 57.7 °F 99% 30.25 in 5.0 mi ENE 3.5 mph - N/A   Clear
8:15 AM 58.6 °F - 58.1 °F 98% 30.24 in 7.0 mi ENE 4.6 mph - N/A   Clear
8:35 AM 60.1 °F - 59.2 °F 97% 30.25 in 5.0 mi East 5.8 mph - N/A   Clear
8:55 AM 62.6 °F - 59.9 °F 91% 30.24 in 10.0 mi East 5.8 mph - N/A   Clear
9:15 AM 64.2 °F - 59.2 °F 84% 30.25 in 10.0 mi East 8.1 mph - N/A   Clear
9:35 AM 64.9 °F - 59.2 °F 82% 30.25 in 10.0 mi East 5.8 mph - N/A   Clear
9:55 AM 67.1 °F - 59.9 °F 78% 30.25 in 10.0 mi East 8.1 mph - N/A   Clear
10:15 AM 68.9 °F - 59.7 °F 72% 30.25 in 10.0 mi ESE 6.9 mph - N/A   Clear
10:35 AM 70.5 °F - 60.3 °F 70% 30.24 in 10.0 mi East 9.2 mph - N/A   Clear
10:55 AM 72.3 °F - 60.1 °F 65% 30.24 in 10.0 mi East 6.9 mph - N/A   Clear
11:15 AM 73.9 °F - 59.9 °F 61% 30.23 in 10.0 mi East 8.1 mph - N/A   Clear
11:35 AM 75.7 °F - 58.8 °F 56% 30.22 in 10.0 mi ESE 9.2 mph - N/A   Clear
11:55 AM 76.5 °F - 58.8 °F 54% 30.22 in 10.0 mi East 6.9 mph - N/A   Clear
12:15 PM 77.0 °F - 57.6 °F 51% 30.22 in 10.0 mi SE 6.9 mph - N/A   Clear
12:35 PM 78.1 °F - 57.7 °F 49% 30.20 in 10.0 mi ESE 6.9 mph - N/A   Scattered Clouds
12:55 PM 78.1 °F - 57.6 °F 49% 30.19 in 10.0 mi ESE 8.1 mph - N/A   Scattered Clouds
1:15 PM 78.3 °F - 57.7 °F 49% 30.19 in 10.0 mi South 4.6 mph - N/A   Scattered Clouds
1:35 PM 79.9 °F - 57.9 °F 47% 30.18 in 10.0 mi ESE 4.6 mph - N/A   Scattered Clouds
1:55 PM 79.9 °F - 57.4 °F 46% 30.16 in 10.0 mi SE 5.8 mph - N/A   Scattered Clouds
2:15 PM 79.0 °F - 56.7 °F 46% 30.16 in 10.0 mi SE 5.8 mph - N/A   Scattered Clouds
2:35 PM 79.0 °F - 57.2 °F 47% 30.15 in 10.0 mi South 3.5 mph - N/A   Scattered Clouds
2:55 PM 79.2 °F - 56.3 °F 45% 30.15 in 10.0 mi ESE 4.6 mph - N/A   Clear
3:15 PM 79.2 °F - 56.5 °F 46% 30.14 in 10.0 mi NNE 4.6 mph - N/A   Clear
3:35 PM 80.2 °F 80.4 °F 56.1 °F 43% 30.14 in 10.0 mi SSE 3.5 mph - N/A   Scattered Clouds
3:55 PM 79.2 °F - 56.8 °F 46% 30.14 in 10.0 mi ENE 4.6 mph - N/A   Mostly Cloudy
4:15 PM 79.7 °F - 57.0 °F 46% 30.13 in 10.0 mi ESE 4.6 mph - N/A   Scattered Clouds
4:35 PM 79.2 °F - 57.2 °F 47% 30.13 in 10.0 mi ESE 5.8 mph - N/A   Clear
4:55 PM 78.6 °F - 57.2 °F 48% 30.13 in 10.0 mi ESE 4.6 mph - N/A   Clear
5:15 PM 78.8 °F - 57.4 °F 48% 30.12 in 10.0 mi ESE 4.6 mph - N/A   Clear
5:35 PM 78.1 °F - 57.6 °F 49% 30.12 in 10.0 mi SE 4.6 mph - N/A   Clear
5:55 PM 78.8 °F - 57.7 °F 48% 30.12 in 10.0 mi SSE 4.6 mph - N/A   Clear
6:15 PM 78.3 °F - 57.2 °F 48% 30.12 in 10.0 mi SE 3.5 mph - N/A   Clear
6:35 PM 76.6 °F - 57.9 °F 52% 30.12 in 10.0 mi Calm Calm - N/A   Clear
6:55 PM 74.8 °F - 58.1 °F 56% 30.12 in 10.0 mi Calm Calm - N/A   Clear
7:15 PM 72.1 °F - 58.6 °F 62% 30.12 in 7.0 mi Calm Calm - N/A   Clear
7:35 PM 70.3 °F - 60.6 °F 71% 30.12 in 10.0 mi Calm Calm - N/A   Clear
7:55 PM 67.8 °F - 60.8 °F 78% 30.12 in 10.0 mi ENE 3.5 mph - N/A   Clear
8:15 PM 67.1 °F - 62.2 °F 84% 30.12 in 10.0 mi East 4.6 mph - N/A   Clear
8:35 PM 67.3 °F - 62.1 °F 83% 30.12 in 10.0 mi East 5.8 mph - N/A   Clear
8:55 PM 67.5 °F - 61.2 °F 80% 30.12 in 10.0 mi East 4.6 mph - N/A   Clear
9:15 PM 67.1 °F - 61.0 °F 81% 30.12 in 10.0 mi East 3.5 mph - N/A   Clear
9:35 PM 67.3 °F - 60.8 °F 80% 30.12 in 10.0 mi East 3.5 mph - N/A   Clear
9:55 PM 65.5 °F - 60.8 °F 85% 30.12 in 10.0 mi East 4.6 mph - N/A   Clear
10:15 PM 65.7 °F - 61.0 °F 85% 30.12 in 10.0 mi East 3.5 mph - N/A   Clear
10:35 PM 65.5 °F - 61.0 °F 85% 30.12 in 10.0 mi Calm Calm - N/A   Clear
10:55 PM 65.3 °F - 61.0 °F 86% 30.12 in 10.0 mi ENE 3.5 mph - N/A   Clear
11:15 PM 64.8 °F - 61.2 °F 88% 30.12 in 10.0 mi Calm Calm - N/A   Clear
11:35 PM 65.3 °F - 61.3 °F 87% 30.12 in 10.0 mi East 3.5 mph - N/A   Clear
11:55 PM 65.5 °F - 61.9 °F 88% 30.12 in 10.0 mi East 3.5 mph - N/A   Clear